Volver al catálogo

FENGYUN 1C DEB

LostSSO
NORAD 32115·DEBRIS·🇨🇳 China

Lanzado May 10, 1999 desde Taiyuan Satellite Launch Center

Loading…

Próximos Pases (próximas 24 horas)

TLE

ObsoletoSource: Space-Track

Época: Aug 22, 2022, 00:17 UTC

1 32115U 99025CRH 22234.01216359  .00001861  00000-0  83828-3 0  9995
2 32115  98.9213 309.0586 0025893 193.6045 166.4437 14.23317275778796

Sigue FENGYUN 1C DEB en tiempo real con AllMySat

Download on the App Store